Aérodrome :
LOGIN :

S'inscrire | Disclaimer

   EN    FR    IT 

 










Légende :    VFR   VFR Marginal   IFR   IFR Intensif   IFR Très Intensif
Visi : 
Plafond : 
>= 8 km
>= 3000ft
5 à 8 km
1000 à 3000 ft
1500m à 5 km
500 à 1000 ft
800 à 1500m
200 à 500 ft
< 800m
< 200 ft
Symboles :   Orages  Brouillard  Fortes neiges  Fortes précipitations  Vent > 20 kt
SIGMETs :   Divers  Orages  Givrage  Turbulence  Onde Orograph.  Cendres Volcan.







- Altitude de l'aérodrome : 184 ft
- Code IATA : BRU


EBBR - Bruxelles

DERNIER METAR :
  • 280050Z 00000KT 9999 FEW046 16/15 Q1018 NOSIG

METARs EXPIRÉS :
  • 280020Z 00000KT CAVOK 16/15 Q1018 NOSIG
  • 272350Z 35001KT CAVOK 17/15 Q1018 NOSIG
  • 272320Z VRB01KT CAVOK 17/16 Q1018 NOSIG
  • 272250Z 00000KT CAVOK 17/16 Q1018 NOSIG
  • 272220Z VRB01KT CAVOK 17/15 Q1018 NOSIG

TAF TAF EBBR
Valide du 28 à 00h jusqu'au 29 à 06h UTC


272320Z 2800/2906 VRB03KT CAVOK
PROB30
TEMPO 2802/2804 3000 SHRA TSRA
Pas de NOTAMs connus pour ce terrain.



MET'MAP, la Météo Aéronautique d'un coup d'oeil ! - Copyright ORBIFLY Décembre 2007 - Disclaimer

ORBIFLY MET'MAP TEAM :

Programmation & Développement : Alexandra Zaïnal
Conception & Développement : Baudouin d'Aumeries
Co-Programmation & Développement : Marc-Olivier Méhu
Soutien technique & logistique : Manuel Goepfert

Contact : metmap@orbifly.com




SOURCES & CREDITS :

   NOAA